Bookmark and Share
Track history (hours):
 

Wilson Cadiz

Last reported at 2014-Apr-23 07:15 UTC. Time now 2014-Apr-23 12:40 UTC.
Position N 59°53' E 030°12'.

Length 100 m; draft 6.1 m.

Type: Ship. MMSI: 314216000.

NotesDate/timePositionNaut miles runAvg speedWind from/ knotsBaromVisibWave heightAir tempDewpointWater temp
2014-Apr-23 07:15N 59°53' E 030°12'1 0.2
2014-Apr-23 05:10N 59°54' E 030°13'0 0.0
2014-Apr-23 02:22N 59°54' E 030°13'0 0.0
2014-Apr-23 01:22N 59°54' E 030°13'0 0.0
2014-Apr-23 00:25N 59°54' E 030°13'0 0.0
2014-Apr-22 23:31N 59°54' E 030°13'0 0.0
2014-Apr-22 22:31N 59°54' E 030°13'0 0.0
2014-Apr-22 20:22N 59°54' E 030°13'0 0.0
2014-Apr-22 19:25N 59°54' E 030°13'0 0.0
2014-Apr-22 18:31N 59°54' E 030°13'0 0.0
2014-Apr-22 17:28N 59°54' E 030°13'0 0.0
2014-Apr-22 16:28N 59°54' E 030°13'0 0.0
2014-Apr-22 15:25N 59°54' E 030°13'0 0.0
2014-Apr-22 14:31N 59°54' E 030°13'0 0.0
2014-Apr-22 13:19N 59°54' E 030°13'0 0.0
2014-Apr-22 11:25N 59°54' E 030°13'0 0.0
2014-Apr-22 10:28N 59°54' E 030°13'0 0.0
2014-Apr-22 09:31N 59°54' E 030°13'0 0.0
2014-Apr-22 08:31N 59°54' E 030°13'0 0.0
2014-Apr-21 15:07N 59°54' E 030°13'1 1.5
2014-Apr-21 14:33N 59°53' E 030°11'105 3.2
2014-Apr-20 05:33N 59°60' E 026°42'1312.7
2014-Apr-20 04:33N 59°57' E 026°17'4113.0
2014-Apr-20 01:23N 59°47' E 024°57'1112.9
2014-Apr-20 00:33N 59°45' E 024°37'1312.9
2014-Apr-19 23:34N 59°41' E 024°12'1312.9
2014-Apr-19 22:33N 59°37' E 023°48'1313.1
2014-Apr-19 21:33N 59°33' E 023°23'29612.4
2014-Apr-18 21:33N 56°05' E 016°48'1212.2
2014-Apr-18 20:33N 55°58' E 016°29'1212.1
2014-Apr-18 19:33N 55°52' E 016°10'1812.2
2014-Apr-18 18:03N 55°43' E 015°42'712.2
2014-Apr-18 17:29N 55°40' E 015°31'1112.0
2014-Apr-18 16:33N 55°35' E 015°13'1212.1
2014-Apr-18 15:33N 55°29' E 014°54'1212.1
2014-Apr-18 14:33N 55°23' E 014°36'1212.1
2014-Apr-18 13:33N 55°14' E 014°23'1111.3
2014-Apr-18 12:33N 55°10' E 014°04'1212.1
2014-Apr-18 11:33N 55°11' E 013°43'1212.4
2014-Apr-18 10:33N 55°13' E 013°21'1312.6
2014-Apr-18 09:33N 55°14' E 012°59'1212.4
2014-Apr-18 08:33N 55°18' E 012°38'1212.3
2014-Apr-18 07:33N 55°30' E 012°41'1212.4
2014-Apr-18 06:33N 55°42' E 012°41'1212.0
2014-Apr-18 05:33N 55°54' E 012°38'1211.7
2014-Apr-18 04:33N 56°06' E 012°34'1312.7
2014-Apr-18 03:33N 56°16' E 012°22'1312.5
2014-Apr-18 02:33N 56°28' E 012°15'1313.0
2014-Apr-18 01:33N 56°41' E 012°09'1212.1
2014-Apr-18 00:33N 56°53' E 012°04'1212.0
2014-Apr-17 23:33N 57°04' E 011°58'1211.9
2014-Apr-17 22:33N 57°16' E 011°50'1212.1
2014-Apr-17 21:33N 57°25' E 011°38'1212.0
2014-Apr-17 20:33N 57°35' E 011°25'1312.6
2014-Apr-17 19:33N 57°46' E 011°12'1211.9
2014-Apr-17 18:33N 57°56' E 011°00'1211.3
2014-Apr-17 17:30N 58°06' E 010°48'  
2014-Apr-14 20:31N 58°01' E 006°24'9 9.6
2014-Apr-14 19:33N 58°07' E 006°11'10 9.8
2014-Apr-14 18:34N 58°14' E 005°57'10 9.8
2014-Apr-14 17:34N 58°20' E 005°44'10 9.9
2014-Apr-14 16:33N 58°27' E 005°30'2010.0
2014-Apr-14 14:32N 58°45' E 005°12'1010.0
2014-Apr-14 13:33N 58°54' E 005°03'19 9.6
2014-Apr-14 11:32N 59°10' E 004°44'  

Dump ship's entire track history

sailing weather and tide predictions

Wilson Cadiz — 8PSY — position and weather